CAPE
1 1 1 1 0 0 0 0 0 0 0 0 0 0 0 0 0 0 0 0 0 0 0 0 0 0 0 0 0 0 0 0 0 0 0 0 0 3 149 88 125 78 1 0 18 16 93
1 1 1 1 1 0 0 0 0 0 0 0 0 0 0 0 0 0 0 0 0 0 0 0 0 0 0 0 0 0 0 0 0 0 0 0 0 0 88 69 125 306 120 33 106 198 356
1 1 2 1 1 0 0 0 0 0 0 0 0 0 0 0 0 0 0 0 0 0 0 0 0 0 0 0 0 0 0 0 0 0 0 0 0 0 4 94 234 233 274 287 294 337 136
0 1 0 0 1 0 0 0 0 0 0 0 0 0 0 0 0 0 0 0 0 0 0 0 0 0 0 0 0 0 0 0 0 0 0 0 0 0 0 72 248 214 209 110 156 248 74
1 1 1 1 1 1 0 0 0 0 0 0 0 0 0 0 0 0 0 0 0 0 0 0 0 0 0 0 0 0 0 0 0 0 0 0 0 0 0 0 62 66 50 0 5 76 9
1 1 1 1 1 0 0 0 0 0 0 0 0 0 0 0 0 0 0 0 0 0 0 0 0 0 0 0 0 0 0 0 0 0 0 0 0 0 0 0 1 60 13 0 2 8 25
1 1 1 1 1 0 0 0 0 0 0 0 0 0 0 0 0 0 0 0 0 0 0 0 0 0 0 0 0 0 0 0 0 0 0 0 0 0 0 0 58 41 7 11 8 30 47
1 1 1 1 1 1 0 0 0 0 0 0 0 0 0 0 0 0 0 0 0 0 0 0 0 0 0 0 0 0 0 0 0 0 0 0 0 0 0 160 109 87 13 0 0 3 19
1 1 1 0 0 1 1 1 0 0 0 0 0 0 0 0 0 0 0 0 0 0 0 0 0 0 0 0 0 0 0 0 0 0 0 0 0 0 0 158 114 69 5 0 0 0 3
1 1 1 1 1 1 1 0 0 0 0 0 0 0 0 0 0 0 0 0 0 0 0 0 0 0 0 0 0 0 0 0 0 0 0 0 0 0 0 4 122 103 2 33 1 0 0
1 1 1 1 1 0 0 0 0 0 0 0 0 0 0 0 0 0 0 0 0 0 0 0 0 0 0 0 0 0 0 0 0 0 0 0 0 0 0 35 246 73 1 54 4 3 0
1 1 1 0 0 0 0 0 0 0 0 0 0 0 0 0 0 0 0 0 0 0 0 0 0 0 0 0 0 0 0 0 0 0 0 0 0 0 0 175 124 130 183 64 48 0 0
0 0 0 0 0 0 0 0 0 0 0 0 0 0 0 0 0 0 0 0 0 2 2 7 0 0 0 1 1 0 0 0 0 0 0 0 0 0 0 189 196 189 78 18 29 2 14
0 0 0 0 0 0 0 0 0 0 0 0 0 0 0 0 0 0 0 0 7 33 32 0 0 3 6 0 0 1 0 0 0 0 0 0 0 0 0 14 102 85 112 96 25 10 24
0 0 0 0 0 0 0 0 0 0 0 0 0 0 0 0 0 0 0 1 19 0 0 0 3 20 2 1 12 5 0 0 0 0 0 1 7 0 0 0 0 0 68 28 18 0 0
0 0 0 0 0 0 0 0 0 0 0 0 0 0 0 0 0 0 0 21 0 0 0 3 2 26 9 7 17 15 11 3 13 29 0 0 10 23 0 0 0 27 12 0 5 7 3
0 0 0 0 0 0 0 0 0 0 0 0 0 0 0 0 0 0 4 14 0 0 0 0 0 2 0 6 9 18 21 6 0 0 0 0 7 20 1 0 0 0 0 0 0 0 2
0 0 0 0 0 0 0 0 0 0 0 0 0 0 0 0 0 0 0 0 0 0 0 0 0 0 0 2 10 1 3 0 0 0 0 0 0 0 0 4 0 0 0 0 0 0 0
0 0 0 0 0 0 0 0 0 0 0 0 0 0 0 0 0 0 0 0 0 0 0 0 0 0 0 0 28 14 0 5 0 0 0 0 0 0 0 2 14 1 0 0 0 0 0
0 0 0 0 0 0 0 0 0 0 0 0 0 0 1 0 0 0 0 1 0 0 0 0 0 0 0 0 3 40 1 8 0 0 0 0 0 2 0 0 0 0 7 7 0 0 0
0 0 0 0 0 0 0 0 0 0 0 0 0 0 7 2 0 0 0 0 0 0 0 0 0 0 0 0 0 0 60 3 12 0 0 0 0 0 0 3 0 0 0 3 3 0 0
0 0 0 0 0 0 0 0 0 0 0 0 0 0 0 0 0 0 0 0 0 0 0 0 0 0 0 0 5 16 9 2 74 30 44 0 0 0 0 4 1 0 2 0 0 9 0
1 0 0 0 0 0 0 0 0 0 0 0 0 28 3 1 0 0 0 0 0 0 0 0 0 0 0 0 1 0 0 0 0 114 66 69 52 39 0 14 3 0 2 0 15 337 311
0 1 0 0 0 0 0 0 0 0 0 0 0 0 7 0 24 2 0 0 0 0 0 0 0 0 0 0 0 0 0 0 41 123 17 66 89 98 83 0 32 113 1 1 144 342 193
0 1 0 0 0 1 0 0 0 0 0 0 0 0 55 81 84 9 0 0 0 0 0 0 0 0 0 0 0 0 18 104 213 32 48 11 28 20 51 7 103 158 25 0 94 147 194
1 1 1 0 0 1 1 0 0 0 0 0 0 0 48 41 32 6 0 0 0 0 0 0 0 0 0 0 0 71 116 22 63 0 0 0 0 0 138 127 87 152 55 2 0 108 346
1 0 2 0 0 0 1 1 0 0 0 0 0 0 11 16 0 18 0 0 0 0 0 54 63 32 0 0 0 38 61 13 6 0 0 0 0 0 7 17 96 7 38 32 0 53 206
2 1 1 0 0 2 1 1 0 0 0 0 0 0 2 32 1 34 0 0 0 0 0 0 3 90 154 97 23 213 279 65 0 2 52 0 0 0 2 26 0 0 24 60 83 52 243
2 2 2 0 1 1 0 0 0 0 0 0 0 0 0 6 1 1 0 0 0 0 0 0 0 82 66 17 1 89 270 29 102 139 0 114 17 4 4 28 14 0 0 0 59 436 401
CIN
0 -0 -0 -0 0 0 0 0 0 0 0 0 0 0 0 0 0 0 0 0 0 0 0 0 0 0 0 0 0 0 0 0 0 0 0 0 0 -15 -6 -14 -8 -11 -5 0 -132 -43 -99
-1 -0 -1 -1 0 0 0 0 0 0 0 0 0 0 0 0 0 0 0 0 0 0 0 0 0 0 0 0 0 0 0 0 0 0 0 0 0 0 -13 -25 -19 -35 -74 -83 -41 -61 -12
-4 -5 -2 -1 0 0 0 0 0 0 0 0 0 0 0 0 0 0 0 0 0 0 0 0 0 0 0 0 0 0 0 0 0 0 0 0 0 0 -1 -16 -16 -26 -5 -17 -16 -47 -88
-0 0 -0 0 -0 0 0 0 0 0 0 0 0 0 0 0 0 0 0 0 0 0 0 0 0 0 0 0 0 0 0 0 0 0 0 0 0 0 0 -34 -25 -12 -11 -3 -44 -60 -84
-0 -0 -0 -0 -0 0 0 0 0 0 0 0 0 0 0 0 0 0 0 0 0 0 0 0 0 0 0 0 0 0 0 0 0 0 0 0 0 0 0 0 -10 -52 -36 -28 -27 -29 -46
-0 -0 -0 -0 0 0 0 0 0 0 0 0 0 0 0 0 0 0 0 0 0 0 0 0 0 0 0 0 0 0 0 0 0 0 0 0 0 0 0 0 -26 -16 -48 0 -30 -36 -32
-0 0 0 0 0 0 0 0 0 0 0 0 0 0 0 0 0 0 0 0 0 0 0 0 0 0 0 0 0 0 0 0 0 0 0 0 0 0 0 0 -26 -34 -63 -42 -29 -21 -2
-0 -0 0 0 0 0 0 0 0 0 0 0 0 0 0 0 0 0 0 0 0 0 0 0 0 0 0 0 0 0 0 0 0 0 0 0 0 0 0 -27 -32 -29 -57 0 0 -42 -18
-1 0 0 0 0 0 0 0 0 0 0 0 0 0 0 0 0 0 0 0 0 0 0 0 0 0 0 0 0 0 0 0 0 0 0 0 0 0 0 -23 -23 -17 -34 -10 -9 0 -46
0 0 0 0 0 0 0 0 0 0 0 0 0 0 0 0 0 0 0 0 0 0 0 0 0 0 0 0 0 0 0 0 0 0 0 0 0 0 0 -14 -47 -57 -16 -30 -8 0 0
0 0 -0 -0 -0 0 0 0 0 0 0 0 0 0 0 0 0 0 0 0 0 0 0 0 0 0 0 0 0 0 0 0 0 0 0 0 0 0 0 -17 -64 -99 -11 -59 -31 -58 0
0 0 -0 -0 0 0 0 0 0 0 0 0 0 0 0 0 0 0 0 0 0 0 0 0 0 0 0 0 -1 0 0 0 0 0 0 0 0 0 0 -64 -49 -100 -53 -10 -33 -2 0
0 -1 -1 0 0 0 0 0 0 0 0 0 0 0 0 0 0 0 0 0 0 -3 -13 -3 0 0 0 -11 -8 0 0 0 0 0 0 0 0 0 0 -32 -41 -98 -38 -19 -7 -19 -30
0 0 0 0 0 0 0 0 0 0 0 0 0 0 0 0 0 0 0 0 -18 -8 -6 0 0 -3 -8 -3 -1 -17 0 0 0 0 0 0 0 0 0 -15 -34 -49 -37 -8 -8 -14 -12
0 0 0 0 0 0 0 0 0 0 0 0 0 0 0 0 0 0 0 -3 -5 0 0 -0 -1 -7 -25 -12 -10 -32 -0 0 0 0 0 -1 -7 -0 0 0 0 0 -38 -67 -43 -11 -5
0 0 0 0 0 0 0 0 0 0 0 0 0 0 0 0 0 0 0 -12 0 0 0 -8 -12 -7 -9 -16 -5 -14 -19 -43 -14 -19 0 0 -25 -16 0 0 0 -14 -35 0 -13 -21 -14
0 0 0 0 0 0 0 0 0 0 0 0 0 0 0 0 0 0 -21 -3 0 0 0 0 0 -26 -7 -42 -2 -33 -31 -40 0 0 0 0 -40 -44 -5 0 0 0 0 0 0 0 -3
0 0 0 0 0 0 0 0 0 0 0 0 0 0 0 0 0 0 -0 0 0 0 0 0 0 0 0 -11 -2 -30 -55 0 -3 0 0 0 0 0 -1 -20 0 0 0 0 0 0 0
0 0 0 0 0 0 0 0 0 0 0 0 0 0 0 0 0 -2 0 0 0 0 0 0 0 0 0 0 -8 -28 -2 -15 0 0 0 0 0 -0 0 -23 -28 -3 0 0 0 0 0
0 0 0 0 0 0 0 0 0 0 0 0 0 0 -3 0 0 -1 -4 -2 0 0 0 0 0 0 0 0 -27 -15 -26 -7 0 0 0 0 0 -50 0 0 -19 -5 -42 -24 0 0 0
0 0 0 0 0 0 0 0 0 0 0 0 0 0 -22 -2 0 0 0 0 0 0 0 0 0 0 0 0 0 -7 -39 -10 -15 0 0 0 0 0 -5 -58 0 0 -13 -49 -34 0 0
0 0 0 0 0 0 0 0 0 0 0 0 0 -1 0 0 0 0 0 0 0 0 0 0 0 0 0 0 -20 -47 -59 -51 -10 -23 -48 -1 0 -1 0 -39 -20 -66 -50 0 0 -44 -1
0 0 0 0 0 0 0 0 0 0 0 0 0 -101 -40 -9 0 0 0 0 0 0 0 0 0 0 0 0 -83 -12 0 0 0 -7 -23 -29 -33 -25 0 -21 -28 0 -49 0 -40 -29 -75
0 0 0 0 0 0 0 0 0 0 0 0 0 0 -83 0 -42 -6 0 0 0 0 0 0 0 0 0 0 0 0 0 0 -64 -48 -170 -56 -29 -27 -8 0 -42 -26 -100 -72 -56 -41 -54
0 0 0 0 0 0 0 0 0 0 0 0 0 -11 -103 -80 -44 -21 0 0 0 0 0 0 0 0 0 0 0 0 -21 -14 -55 -126 -108 -183 -122 -54 -24 -38 -6 -20 -94 0 -82 -52 -40
0 0 0 0 0 0 0 0 0 0 0 0 0 0 -146 -105 -23 -35 0 0 0 0 0 0 0 0 0 0 0 -27 -23 -111 -70 0 0 0 -8 0 -14 -6 -6 -56 -123 -13 0 -57 -45
0 0 0 0 0 0 0 0 0 0 0 0 0 0 -120 -108 0 -32 0 0 0 0 0 -31 -70 -79 -4 0 0 -21 -38 -125 -51 -42 0 0 -54 0 -76 -73 -36 -12 -136 -133 0 -57 -34
0 0 0 0 0 0 0 0 0 0 0 0 0 0 -34 -84 -3 -19 0 0 0 0 0 0 -9 -39 -24 -29 -13 -6 -31 -26 0 -57 -180 0 -44 0 -3 -53 0 0 -124 -61 -81 -86 -14
0 0 0 0 0 0 0 0 0 0 0 0 0 0 0 -137 -0 -6 0 0 0 0 0 0 0 -60 -59 -92 -10 -54 -11 -119 -51 -6 -0 -36 -77 -60 -71 -59 -55 0 0 0 -109 -20 -36
Wind_Speed
28 28 29 29 29 29 29 29 27 25 24 23 22 22 21 19 17 15 15 14 17 21 24 24 24 23 18 9 12 11 10 9 10 11 9 9 23 18 17 16 17 14 12 17 26 25 20
29 29 29 29 29 30 29 29 28 26 25 25 25 25 23 21 20 20 19 19 20 22 23 23 23 23 13 13 11 8 9 10 11 8 16 28 20 16 11 22 19 9 13 26 27 24 9
29 30 30 30 30 30 30 30 29 28 27 26 25 24 24 23 22 21 21 21 22 23 23 22 22 20 15 9 16 9 8 15 12 10 19 30 30 25 20 19 17 12 5 10 7 11 7
31 31 31 30 30 30 30 30 30 29 25 23 22 23 24 25 23 24 24 24 24 23 22 21 19 19 16 20 29 29 12 13 16 14 27 31 29 28 22 11 16 21 12 3 12 12 9
32 32 31 31 30 30 31 30 30 29 24 20 20 22 23 24 25 26 25 23 21 19 16 16 17 17 20 17 21 26 19 17 16 20 28 30 29 25 26 24 19 16 15 12 16 14 7
33 32 32 32 31 31 29 29 31 27 22 18 17 19 20 23 25 26 26 12 14 17 14 13 15 19 20 20 17 16 21 21 17 18 25 26 20 23 26 27 24 19 19 16 19 16 19
26 31 32 31 31 30 26 27 31 22 15 15 12 13 16 23 22 24 24 19 20 19 13 12 12 16 21 13 10 13 15 23 18 23 23 21 24 27 27 29 18 10 14 16 18 21 15
20 20 24 24 22 25 28 27 16 7 8 6 5 4 11 13 2 11 14 17 15 22 21 7 7 12 20 17 16 20 14 19 21 26 24 27 29 30 28 9 7 10 10 18 17 15 20
22 23 24 25 20 17 28 29 10 3 3 2 3 3 1 9 12 11 13 12 8 4 17 12 9 11 8 18 17 17 15 24 20 27 28 31 28 26 30 16 11 19 16 18 17 10 16
24 26 26 25 22 26 33 29 15 4 2 6 7 5 10 13 15 17 13 9 8 7 17 16 16 15 13 12 19 16 16 24 21 25 29 31 31 29 27 25 16 15 14 12 6 11 13
28 29 28 28 26 26 34 33 33 9 9 10 9 9 8 12 12 15 8 9 12 12 20 11 17 15 12 12 9 7 16 26 29 27 23 30 28 27 26 20 16 15 11 3 5 10 8
32 32 32 30 30 35 35 34 29 19 15 12 11 10 8 16 14 12 8 9 10 16 18 13 18 17 14 19 20 3 14 26 27 28 28 31 26 24 23 8 12 6 3 2 9 15 19
33 33 33 31 33 36 35 32 29 23 18 14 11 7 12 12 15 8 11 11 19 17 17 15 13 16 13 11 7 13 17 24 23 20 24 27 28 23 20 6 3 5 6 15 19 22 21
34 33 32 32 31 36 35 32 29 26 20 17 14 7 14 13 13 11 9 13 18 13 10 15 10 11 15 17 13 14 14 24 29 28 27 25 29 24 22 14 15 17 18 20 22 21 21
36 33 32 31 32 36 36 33 31 28 22 19 13 15 13 14 16 14 14 17 18 23 15 24 18 12 17 18 12 18 19 19 25 25 25 22 24 21 19 29 21 23 29 28 21 21 23
37 36 34 32 36 36 36 34 33 30 24 20 14 14 10 14 17 13 12 12 20 14 10 24 16 10 16 19 18 13 16 15 13 14 18 19 27 24 22 20 28 21 20 25 22 28 27
38 37 36 36 37 37 36 35 33 32 26 16 15 15 13 19 17 11 11 15 20 21 17 16 19 19 6 16 16 15 17 17 18 18 19 18 18 24 20 21 24 25 26 25 26 26 28
38 39 38 36 36 37 36 35 33 32 29 20 15 15 16 15 11 9 13 18 16 17 14 13 12 19 17 18 18 16 16 16 19 20 20 20 15 21 24 22 19 26 25 26 27 28 27
38 38 38 37 37 36 36 34 32 31 29 18 14 8 11 11 12 11 13 14 15 19 21 20 21 19 20 16 19 16 17 22 19 20 18 19 17 21 25 25 19 20 25 27 29 28 32
37 38 38 37 37 36 35 33 31 29 27 16 14 14 13 9 8 8 16 14 14 16 16 17 15 17 19 19 21 19 18 20 17 18 21 20 21 14 22 24 23 24 23 24 24 30 29
37 37 38 37 37 35 34 33 30 28 28 13 12 12 6 12 17 20 18 15 17 15 17 15 13 20 22 22 21 22 22 21 24 18 20 21 26 23 18 18 24 24 25 26 25 27 28
37 37 37 37 36 35 34 33 32 29 28 9 9 15 21 14 16 12 11 14 15 20 19 21 20 24 23 20 22 13 24 23 19 20 19 22 27 27 27 22 20 23 23 27 25 25 29
36 36 36 36 36 34 33 32 31 30 25 11 15 18 15 11 14 11 12 16 18 19 15 17 19 21 18 24 23 25 25 26 25 18 23 22 21 24 28 23 18 20 19 20 17 16 12
35 35 33 35 35 34 33 31 30 28 23 11 10 15 11 10 22 13 14 15 16 16 16 18 16 18 22 26 26 26 24 24 21 19 17 20 24 23 24 20 26 15 16 15 9 12 11
34 34 33 35 35 34 32 31 30 28 25 13 10 14 11 10 21 23 13 12 16 9 12 9 16 20 24 24 22 19 23 22 21 19 19 18 19 23 27 26 20 16 16 18 19 14 15
32 34 35 34 34 34 32 31 29 28 27 18 14 13 10 10 11 24 16 12 12 17 5 6 14 15 19 19 22 22 22 22 25 25 19 17 17 17 22 25 30 20 22 23 24 22 19
29 32 35 34 33 33 31 30 29 28 26 21 7 19 11 5 2 24 19 16 17 20 18 18 19 19 20 17 25 26 22 19 18 24 24 24 18 21 22 20 18 23 26 25 26 24 20
30 31 33 34 33 32 29 28 28 27 25 21 19 22 9 8 19 22 18 17 19 18 18 23 21 21 21 21 19 20 19 17 19 21 20 19 24 22 21 21 26 23 22 21 20 23 18
30 31 32 32 30 29 27 25 25 25 24 22 15 21 24 6 14 27 21 20 19 19 19 19 18 20 17 18 21 20 22 13 16 23 14 20 18 20 19 21 18 20 20 23 24 13 15
Wind_Direction
359 360 2 2 359 2 2 7 15 23 27 30 31 30 31 32 34 37 37 37 19 349 320 312 302 298 306 339 293 311 322 302 284 279 261 269 250 269 277 294 284 325 36 138 194 216 218
359 0 359 0 358 0 3 4 10 18 20 20 18 21 27 28 25 22 20 17 6 351 334 323 309 301 329 306 319 318 314 294 276 266 253 229 257 277 305 272 280 345 100 139 151 194 246
357 358 0 4 6 2 1 359 0 9 12 14 21 24 23 22 21 16 13 6 353 343 331 322 311 307 318 297 289 306 308 286 266 264 251 228 227 256 290 284 279 309 28 97 308 269 295
1 3 10 14 10 7 5 359 357 355 14 23 26 22 18 16 17 7 0 354 345 338 334 329 324 312 312 287 262 257 283 279 260 262 242 238 242 255 276 313 281 238 273 293 288 270 274
21 22 17 14 13 8 1 5 357 353 17 26 25 19 16 16 10 1 357 0 2 3 12 5 350 331 307 308 281 260 262 260 256 251 241 243 245 261 262 261 272 296 276 284 281 283 266
23 20 17 13 10 3 10 10 359 11 22 28 28 24 21 14 8 0 354 38 38 22 37 35 359 332 315 304 299 265 256 253 251 252 248 251 267 261 257 257 261 276 273 291 277 276 253
40 25 18 17 13 13 23 15 0 25 37 35 36 32 25 12 14 5 3 34 31 30 32 23 13 2 322 347 321 284 263 248 249 248 247 254 253 248 247 256 273 296 293 296 298 288 255
47 45 39 36 37 29 19 17 37 43 45 45 39 31 31 31 233 51 54 44 45 5 357 67 115 325 303 314 293 259 259 251 245 241 246 245 245 242 246 279 291 297 302 276 290 330 257
44 42 38 33 38 38 17 10 42 18 24 325 285 283 344 257 253 75 74 66 128 151 22 37 110 57 34 294 274 261 259 244 246 241 241 238 242 244 245 258 270 284 285 290 280 315 295
40 36 33 32 34 24 3 11 38 28 321 281 275 270 262 258 75 56 68 116 132 115 44 56 67 30 27 336 268 258 256 241 253 245 241 242 244 251 251 255 256 276 297 307 273 292 299
35 30 29 28 30 26 352 353 343 285 284 282 278 265 234 102 98 67 128 223 90 101 35 256 50 41 333 328 309 282 260 240 248 251 250 240 246 253 263 258 249 254 276 326 284 282 297
27 25 22 23 22 3 346 341 319 297 290 287 280 261 209 85 87 124 179 212 131 65 57 92 48 61 80 207 258 340 271 241 253 262 259 244 254 255 263 262 255 205 42 313 287 265 257
22 21 18 21 15 350 341 330 319 303 294 289 276 227 114 135 84 183 144 121 51 59 67 64 91 78 111 162 337 285 262 243 252 253 251 249 249 260 255 251 210 217 216 260 256 247 264
18 20 20 20 19 349 340 329 319 309 298 293 280 196 103 129 147 174 172 86 49 69 94 68 106 244 15 198 113 300 267 242 241 250 257 255 246 256 256 245 241 251 254 262 259 261 269
15 19 20 21 17 343 343 333 325 314 299 294 272 71 90 132 147 135 93 66 48 32 55 359 41 6 315 258 65 267 255 249 243 243 261 274 255 261 259 250 258 260 256 268 279 277 280
12 11 14 17 5 340 345 335 331 319 303 289 69 74 132 152 137 120 90 79 36 58 71 6 49 30 37 228 265 306 293 289 279 278 298 276 262 272 251 253 257 266 279 264 269 261 260
5 4 6 3 355 344 343 337 332 327 312 343 63 68 107 100 107 103 82 63 47 41 77 63 8 23 204 292 295 307 290 281 290 276 291 297 275 271 260 253 256 261 265 268 275 271 270
0 355 357 360 355 345 344 339 333 333 321 26 58 67 67 91 77 87 55 42 79 64 98 101 93 11 37 327 328 313 299 292 291 284 281 291 282 265 261 272 275 265 264 267 266 265 278
356 351 350 351 348 342 338 338 332 339 346 32 52 80 147 79 64 81 60 67 34 3 345 329 344 337 334 334 330 323 305 279 280 286 282 285 278 271 268 273 292 277 266 270 267 277 270
352 351 347 347 344 336 336 331 325 328 345 28 54 63 59 82 100 58 27 41 55 34 38 20 41 287 313 346 337 299 299 288 294 297 280 285 266 290 273 274 268 277 278 282 273 263 269
345 346 345 344 341 332 329 329 319 310 312 40 70 61 45 53 13 352 3 19 11 33 20 26 57 10 346 327 318 284 286 318 303 301 295 277 262 267 292 292 260 280 278 282 279 274 269
340 340 342 341 338 331 329 327 325 314 307 66 54 17 350 22 14 4 34 15 7 357 5 342 343 327 331 349 345 12 294 306 326 307 302 284 264 270 268 282 282 277 296 280 279 291 272
335 342 343 339 333 329 327 326 325 327 329 27 5 345 10 33 15 32 16 6 356 356 7 8 350 340 338 330 309 304 300 277 268 311 297 283 276 275 263 278 276 275 296 282 288 337 310
333 337 346 337 334 327 324 325 326 336 346 25 33 4 27 29 332 5 358 1 2 8 7 344 358 344 333 313 285 284 260 238 316 312 320 286 274 272 268 273 261 277 289 294 288 346 340
330 336 340 333 329 327 321 320 325 329 331 1 8 3 5 19 344 255 360 4 356 24 22 43 350 340 310 294 301 326 305 293 307 300 296 298 297 274 263 259 262 281 291 286 280 292 331
330 330 327 328 326 323 320 317 318 321 320 335 336 338 341 9 31 286 351 23 17 356 43 55 360 9 3 340 314 315 313 307 283 279 300 303 301 288 283 261 255 275 282 283 276 268 300
331 325 320 322 324 321 319 317 314 317 319 325 350 306 330 0 14 295 340 347 343 335 332 342 338 340 346 345 309 309 310 329 324 299 291 276 281 267 291 277 275 286 289 284 268 274 293
320 323 324 324 323 323 324 317 312 313 318 320 263 263 338 339 304 283 336 344 327 325 327 327 341 345 332 331 328 331 331 329 323 302 308 306 283 279 288 283 271 295 285 285 291 290 297
316 320 323 325 328 328 326 322 315 310 314 310 314 285 286 312 302 269 318 329 319 305 324 334 344 340 347 335 328 328 324 343 342 307 339 288 299 291 286 280 295 301 293 282 292 315 318